#Datum;Uhrzeit;WR;Pac;DaySum;Status;WR;Pac;DaySum;Status;Pdc1;Udc;Temp;WR;Pac;DaySum;Status;Pdc1;Udc;Temp;WR;Pac;DaySum;Status;Pdc1;Udc;Temp;WR;Pac;DaySum;Status;Pdc1;Pdc2;Udc1;Udc2;Temp;WR;Pac;DaySum;Status;Pdc1;Pdc2;Udc1;Udc2;Temp;WR;Pac;DaySum;Status;Pdc1;Udc;Temp;WR;Pac;DaySum;Status;Pdc1;Udc;Temp;WR;Pac;DaySum;Status;Pdc1;Udc;Temp
10.10.20;23:55:00;1;632;11261;0;2;0;3858;0;0;0;0;3;0;2354;0;0;0;0;4;0;3232;0;0;0;0;5;0;0;0;0;0;0;0;0;6;0;5940;0;0;0;0;0;0;7;0;4004;0;0;0;0;8;0;1782;0;0;0;0;9;0;2132;0;0;0;0
10.10.20;23:50:00;1;434;11220;0;2;0;3858;0;0;0;0;3;0;2354;0;0;0;0;4;0;3232;0;0;0;0;5;0;0;0;0;0;0;0;0;6;0;5940;0;0;0;0;0;0;7;0;4004;0;0;0;0;8;0;1782;0;0;0;0;9;0;2132;0;0;0;0
10.10.20;23:45:00;1;529;11183;0;2;0;3858;0;0;0;0;3;0;2354;0;0;0;0;4;0;3232;0;0;0;0;5;0;0;0;0;0;0;0;0;6;0;5940;0;0;0;0;0;0;7;0;4004;0;0;0;0;8;0;1782;0;0;0;0;9;0;2132;0;0;0;0
10.10.20;23:40:00;1;605;11140;0;2;0;3858;0;0;0;0;3;0;2354;0;0;0;0;4;0;3232;0;0;0;0;5;0;0;0;0;0;0;0;0;6;0;5940;0;0;0;0;0;0;7;0;4004;0;0;0;0;8;0;1782;0;0;0;0;9;0;2132;0;0;0;0
10.10.20;23:35:00;1;638;11089;0;2;0;3858;0;0;0;0;3;0;2354;0;0;0;0;4;0;3232;0;0;0;0;5;0;0;0;0;0;0;0;0;6;0;5940;0;0;0;0;0;0;7;0;4004;0;0;0;0;8;0;1782;0;0;0;0;9;0;2132;0;0;0;0
10.10.20;23:30:00;1;476;11036;0;2;0;3858;0;0;0;0;3;0;2354;0;0;0;0;4;0;3232;0;0;0;0;5;0;0;0;0;0;0;0;0;6;0;5940;0;0;0;0;0;0;7;0;4004;0;0;0;0;8;0;1782;0;0;0;0;9;0;2132;0;0;0;0
10.10.20;23:25:00;1;447;10995;0;2;0;3858;0;0;0;0;3;0;2354;0;0;0;0;4;0;3232;0;0;0;0;5;0;0;0;0;0;0;0;0;6;0;5940;0;0;0;0;0;0;7;0;4004;0;0;0;0;8;0;1782;0;0;0;0;9;0;2132;0;0;0;0
10.10.20;23:20:00;1;542;10961;0;2;0;3858;0;0;0;0;3;0;2354;0;0;0;0;4;0;3232;0;0;0;0;5;0;0;0;0;0;0;0;0;6;0;5940;0;0;0;0;0;0;7;0;4004;0;0;0;0;8;0;1782;0;0;0;0;9;0;2132;0;0;0;0
10.10.20;23:15:00;1;620;10918;0;2;0;3858;0;0;0;0;3;0;2354;0;0;0;0;4;0;3232;0;0;0;0;5;0;0;0;0;0;0;0;0;6;0;5940;0;0;0;0;0;0;7;0;4004;0;0;0;0;8;0;1782;0;0;0;0;9;0;2132;0;0;0;0
10.10.20;23:10:00;1;447;10866;0;2;0;3858;0;0;0;0;3;0;2354;0;0;0;0;4;0;3232;0;0;0;0;5;0;0;0;0;0;0;0;0;6;0;5940;0;0;0;0;0;0;7;0;4004;0;0;0;0;8;0;1782;0;0;0;0;9;0;2132;0;0;0;0
10.10.20;23:05:00;1;498;10830;0;2;0;3858;0;0;0;0;3;0;2354;0;0;0;0;4;0;3232;0;0;0;0;5;0;0;0;0;0;0;0;0;6;0;5940;0;0;0;0;0;0;7;0;4004;0;0;0;0;8;0;1782;0;0;0;0;9;0;2132;0;0;0;0
10.10.20;23:00:00;1;454;10789;0;2;0;3858;0;0;0;0;3;0;2354;0;0;0;0;4;0;3232;0;0;0;0;5;0;0;0;0;0;0;0;0;6;0;5940;0;0;0;0;0;0;7;0;4004;0;0;0;0;8;0;1782;0;0;0;0;9;0;2132;0;0;0;0
10.10.20;22:55:00;1;505;10752;0;2;0;3858;0;0;0;0;3;0;2354;0;0;0;0;4;0;3232;0;0;0;0;5;0;0;0;0;0;0;0;0;6;0;5940;2;0;0;0;0;0;7;0;4004;0;0;0;0;8;0;1782;0;0;0;0;9;0;2132;0;0;0;0
10.10.20;22:50:00;1;450;10709;0;2;0;3858;0;0;0;0;3;0;2354;0;0;0;0;4;0;3232;0;0;0;0;5;0;0;0;0;0;0;0;0;6;0;5940;2;0;0;0;0;0;7;0;4004;0;0;0;0;8;0;1782;0;0;0;0;9;0;2132;0;0;0;0
10.10.20;22:45:00;1;443;10671;0;2;0;3858;0;0;0;0;3;0;2354;0;0;0;0;4;0;3232;0;0;0;0;5;0;0;0;0;0;0;0;0;6;0;5940;2;0;0;0;0;0;7;0;4004;0;0;0;0;8;0;1782;0;0;0;0;9;0;2132;0;0;0;0
10.10.20;22:40:00;1;487;10634;0;2;0;3858;0;0;0;0;3;0;2354;0;0;0;0;4;0;3232;0;0;0;0;5;0;0;0;0;0;0;0;0;6;0;5940;2;0;0;0;0;0;7;0;4004;0;0;0;0;8;0;1782;0;0;0;0;9;0;2132;0;0;0;0
10.10.20;22:35:00;1;644;10595;0;2;0;3858;0;0;0;0;3;0;2354;0;0;0;0;4;0;3232;0;0;0;0;5;0;0;0;0;0;0;0;0;6;0;5940;2;0;0;0;0;0;7;0;4004;0;0;0;0;8;0;1782;0;0;0;0;9;0;2132;0;0;0;0
10.10.20;22:30:00;1;516;10542;0;2;0;3858;0;0;0;0;3;0;2354;0;0;0;0;4;0;3232;0;0;0;0;5;0;0;0;0;0;0;0;0;6;0;5940;2;0;0;0;0;0;7;0;4004;0;0;0;0;8;0;1782;0;0;0;0;9;0;2132;0;0;0;0
10.10.20;22:25:00;1;458;10495;0;2;0;3858;0;0;0;0;3;0;2354;0;0;0;0;4;0;3232;0;0;0;0;5;0;0;0;0;0;0;0;0;6;0;5940;2;0;0;0;0;0;7;0;4004;0;0;0;0;8;0;1782;0;0;0;0;9;0;2132;0;0;0;0
10.10.20;22:20:00;1;483;10457;0;2;0;3858;0;0;0;0;3;0;2354;0;0;0;0;4;0;3232;0;0;0;0;5;0;0;0;0;0;0;0;0;6;0;5940;2;0;0;0;0;0;7;0;4004;0;0;0;0;8;0;1782;0;0;0;0;9;0;2132;0;0;0;0
10.10.20;22:15:00;1;494;10417;0;2;0;3858;0;0;0;0;3;0;2354;0;0;0;0;4;0;3232;0;0;0;0;5;0;0;0;0;0;0;0;0;6;0;5940;2;0;0;0;0;0;7;0;4004;0;0;0;0;8;0;1782;0;0;0;0;9;0;2132;0;0;0;0
10.10.20;22:10:00;1;633;10376;0;2;0;3858;0;0;0;0;3;0;2354;0;0;0;0;4;0;3232;0;0;0;0;5;0;0;0;0;0;0;0;0;6;0;5940;2;0;0;0;0;0;7;0;4004;0;0;0;0;8;0;1782;0;0;0;0;9;0;2132;0;0;0;0
10.10.20;22:05:00;1;527;10322;0;2;0;3858;0;0;0;0;3;0;2354;0;0;0;0;4;0;3232;0;0;0;0;5;0;0;0;0;0;0;0;0;6;0;5940;2;0;0;0;0;0;7;0;4004;0;0;0;0;8;0;1782;0;0;0;0;9;0;2132;0;0;0;0
10.10.20;22:00:00;1;457;10284;0;2;0;3858;0;0;0;0;3;0;2354;0;0;0;0;4;0;3232;0;0;0;0;5;0;0;0;0;0;0;0;0;6;0;5940;2;0;0;0;0;0;7;0;4004;0;0;0;0;8;0;1782;0;0;0;0;9;0;2132;0;0;0;0
10.10.20;21:55:00;1;620;10246;0;2;0;3858;0;0;0;0;3;0;2354;0;0;0;0;4;0;3232;0;0;0;0;5;0;0;0;0;0;0;0;0;6;0;5940;2;0;0;0;0;0;7;0;4004;0;0;0;0;8;0;1782;0;0;0;0;9;0;2132;0;0;0;0
10.10.20;21:50:00;1;570;10195;0;2;0;3858;0;0;0;0;3;0;2354;0;0;0;0;4;0;3232;0;0;0;0;5;0;0;0;0;0;0;0;0;6;0;5940;2;0;0;0;0;0;7;0;4004;0;0;0;0;8;0;1782;0;0;0;0;9;0;2132;0;0;0;0
10.10.20;21:45:00;1;486;10146;0;2;0;3858;0;0;0;0;3;0;2354;0;0;0;0;4;0;3232;0;0;0;0;5;0;0;0;0;0;0;0;0;6;0;5940;2;0;0;0;0;0;7;0;4004;0;0;0;0;8;0;1782;0;0;0;0;9;0;2132;0;0;0;0
10.10.20;21:40:00;1;604;10105;0;2;0;3858;0;0;0;0;3;0;2354;0;0;0;0;4;0;3232;0;0;0;0;5;0;0;0;0;0;0;0;0;6;0;5940;2;0;0;0;0;0;7;0;4004;0;0;0;0;8;0;1782;0;0;0;0;9;0;2132;0;0;0;0
10.10.20;21:35:00;1;580;10055;0;2;0;3858;0;0;0;0;3;0;2354;0;0;0;0;4;0;3232;0;0;0;0;5;0;0;0;0;0;0;0;0;6;0;5940;2;0;0;0;0;0;7;0;4004;0;0;0;0;8;0;1782;0;0;0;0;9;0;2132;0;0;0;0
10.10.20;21:30:00;1;472;10006;0;2;0;3858;0;0;0;0;3;0;2354;0;0;0;0;4;0;3232;0;0;0;0;5;0;0;0;0;0;0;0;0;6;0;5940;2;0;0;0;0;0;7;0;4004;0;0;0;0;8;0;1782;0;0;0;0;9;0;2132;0;0;0;0
10.10.20;21:25:00;1;432;9965;0;2;0;3858;0;0;0;0;3;0;2354;0;0;0;0;4;0;3232;0;0;0;0;5;0;0;0;0;0;0;0;0;6;0;5940;2;0;0;0;0;0;7;0;4004;0;0;0;0;8;0;1782;0;0;0;0;9;0;2132;0;0;0;0
10.10.20;21:20:00;1;527;9930;0;2;0;3858;0;0;0;0;3;0;2354;0;0;0;0;4;0;3232;0;0;0;0;5;0;0;0;0;0;0;0;0;6;0;5940;2;0;0;0;0;0;7;0;4004;0;0;0;0;8;0;1782;0;0;0;0;9;0;2132;0;0;0;0
10.10.20;21:15:00;1;446;9885;0;2;0;3858;0;0;0;0;3;0;2354;0;0;0;0;4;0;3232;0;0;0;0;5;0;0;0;0;0;0;0;0;6;0;5940;2;0;0;0;0;0;7;0;4004;0;0;0;0;8;0;1782;0;0;0;0;9;0;2132;0;0;0;0
10.10.20;21:10:00;1;502;9847;0;2;0;3858;0;0;0;0;3;0;2354;0;0;0;0;4;0;3232;0;0;0;0;5;0;0;0;0;0;0;0;0;6;0;5940;2;0;0;0;0;0;7;0;4004;0;0;0;0;8;0;1782;0;0;0;0;9;0;2132;0;0;0;0
10.10.20;21:05:00;1;591;9804;0;2;0;3858;0;0;0;0;3;0;2354;0;0;0;0;4;0;3232;0;0;0;0;5;0;0;0;0;0;0;0;0;6;0;5940;2;0;0;0;0;0;7;0;4004;0;0;0;0;8;0;1782;0;0;0;0;9;0;2132;0;0;0;0
10.10.20;21:00:00;1;603;9758;0;2;0;3858;0;0;0;0;3;0;2354;0;0;0;0;4;0;3232;0;0;0;0;5;0;0;0;0;0;0;0;0;6;0;5940;2;0;0;0;0;0;7;0;4004;0;0;0;0;8;0;1782;0;0;0;0;9;0;2132;0;0;0;0
10.10.20;20:55:00;1;715;9707;0;2;0;3858;0;0;0;0;3;0;2354;0;0;0;0;4;0;3232;0;0;0;0;5;0;0;0;0;0;0;0;0;6;0;5940;2;0;0;0;0;0;7;0;4004;0;0;0;0;8;0;1782;0;0;0;0;9;0;2132;0;0;0;0
10.10.20;20:50:00;1;624;9651;0;2;0;3858;0;0;0;0;3;0;2354;0;0;0;0;4;0;3232;0;0;0;0;5;0;0;0;0;0;0;0;0;6;0;5940;2;0;0;0;0;0;7;0;4004;0;0;0;0;8;0;1782;0;0;0;0;9;0;2132;0;0;0;0
10.10.20;20:45:00;1;1793;9598;0;2;0;3858;0;0;0;0;3;0;2354;0;0;0;0;4;0;3232;0;0;0;0;5;0;0;0;0;0;0;0;0;6;0;5940;2;0;0;0;0;0;7;0;4004;0;0;0;0;8;0;1782;0;0;0;0;9;0;2132;0;0;0;0
10.10.20;20:40:00;1;653;9472;0;2;0;3858;0;0;0;0;3;0;2354;0;0;0;0;4;0;3232;0;0;0;0;5;0;0;0;0;0;0;0;0;6;0;5940;2;0;0;0;0;0;7;0;4004;0;0;0;0;8;0;1782;0;0;0;0;9;0;2132;0;0;0;0
10.10.20;20:35:00;1;582;9416;0;2;0;3858;0;0;0;0;3;0;2354;0;0;0;0;4;0;3232;0;0;0;0;5;0;0;0;0;0;0;0;0;6;0;5940;2;0;0;0;0;0;7;0;4004;0;0;0;0;8;0;1782;0;0;0;0;9;0;2132;0;0;0;0
10.10.20;20:30:00;1;645;9367;0;2;0;3858;0;0;0;0;3;0;2354;0;0;0;0;4;0;3232;0;0;0;0;5;0;0;0;0;0;0;0;0;6;0;5940;2;0;0;0;0;0;7;0;4004;0;0;0;0;8;0;1782;0;0;0;0;9;0;2132;0;0;0;0
10.10.20;20:25:00;1;690;9314;0;2;0;3858;0;0;0;0;3;0;2354;0;0;0;0;4;0;3232;0;0;0;0;5;0;0;0;0;0;0;0;0;6;0;5940;2;0;0;0;0;0;7;0;4004;0;0;0;0;8;0;1782;0;0;0;0;9;0;2132;0;0;0;0
10.10.20;20:20:00;1;583;9256;0;2;0;3858;0;0;0;0;3;0;2354;0;0;0;0;4;0;3232;0;0;0;0;5;0;0;0;0;0;0;0;0;6;0;5940;2;0;0;0;0;0;7;0;4004;0;0;0;0;8;0;1782;0;0;0;0;9;0;2132;0;0;0;0
10.10.20;20:15:00;1;521;9208;0;2;0;3858;0;0;0;0;3;0;2354;0;0;0;0;4;0;3232;0;0;0;0;5;0;0;0;0;0;0;0;0;6;0;5940;2;0;0;0;0;0;7;0;4004;0;0;0;0;8;0;1782;0;0;0;0;9;0;2132;0;0;0;0
10.10.20;20:10:00;1;496;9163;0;2;0;3858;0;0;0;0;3;0;2354;0;0;0;0;4;0;3232;0;0;0;0;5;0;0;0;0;0;0;0;0;6;0;5940;2;0;0;0;0;0;7;0;4004;0;0;0;0;8;0;1782;0;0;0;0;9;0;2132;0;0;0;0
10.10.20;20:05:00;1;487;9115;0;2;0;3858;0;0;0;0;3;0;2354;0;0;0;0;4;0;3232;0;0;0;0;5;0;0;0;0;0;0;0;0;6;0;5940;2;0;0;0;0;0;7;0;4004;0;0;0;0;8;0;1782;0;0;0;0;9;0;2132;0;0;0;0
10.10.20;20:00:00;1;520;9075;0;2;0;3858;0;0;0;0;3;0;2354;0;0;0;0;4;0;3232;0;0;0;0;5;0;0;0;0;0;0;0;0;6;0;5940;2;0;0;0;0;0;7;0;4004;0;0;0;0;8;0;1782;0;0;0;0;9;0;2132;0;0;0;0
10.10.20;19:55:00;1;521;9031;0;2;0;3858;0;0;0;0;3;0;2354;0;0;0;0;4;0;3232;0;0;0;0;5;0;0;0;0;0;0;0;0;6;0;5940;2;0;0;0;0;0;7;0;4004;0;0;0;0;8;0;1782;0;0;0;0;9;0;2132;0;0;0;0
10.10.20;19:50:00;1;488;8988;0;2;0;3858;0;0;0;0;3;0;2354;0;0;0;0;4;0;3232;0;0;0;0;5;0;0;0;0;0;0;0;0;6;0;5940;2;0;0;0;0;0;7;0;4004;0;0;0;0;8;0;1782;0;0;0;0;9;0;2132;0;0;0;0
10.10.20;19:45:00;1;580;8946;0;2;0;3858;0;0;0;0;3;0;2354;0;0;0;0;4;0;3232;0;0;0;0;5;0;0;0;0;0;0;0;0;6;0;5940;2;0;0;0;0;0;7;0;4004;0;0;0;0;8;0;1782;0;0;0;0;9;0;2132;0;0;0;0
10.10.20;19:40:00;1;532;8898;0;2;0;3858;0;0;0;0;3;0;2354;0;0;0;0;4;0;3232;0;0;0;0;5;0;0;0;0;0;0;0;0;6;0;5940;2;0;0;0;0;0;7;0;4004;0;0;0;0;8;0;1782;0;0;0;0;9;0;2132;0;0;0;0
10.10.20;19:35:00;1;477;8854;0;2;0;3858;0;0;0;0;3;0;2354;0;0;0;0;4;0;3232;0;0;0;0;5;0;0;0;0;0;0;0;0;6;0;5940;2;0;0;0;0;0;7;0;4004;0;0;0;0;8;0;1782;0;0;0;0;9;0;2132;0;0;0;0
10.10.20;19:30:00;1;512;8814;0;2;0;3858;0;0;0;0;3;0;2354;0;0;0;0;4;0;3232;0;0;0;0;5;0;0;0;0;0;0;0;0;6;0;5940;2;0;0;0;0;0;7;0;4004;0;0;0;0;8;0;1782;0;0;0;0;9;0;2132;0;0;0;0
10.10.20;19:25:00;1;496;8772;0;2;0;3858;0;0;0;0;3;0;2354;0;0;0;0;4;0;3232;0;0;0;0;5;0;0;0;0;0;0;0;0;6;0;5940;2;0;0;0;0;0;7;0;4004;0;0;0;0;8;0;1782;0;0;0;0;9;0;2132;0;0;0;0
10.10.20;19:20:00;1;511;8729;0;2;0;3858;0;0;0;0;3;0;2354;0;0;0;0;4;0;3232;0;0;0;0;5;0;0;0;0;0;0;0;0;6;0;5940;2;0;0;0;0;0;7;0;4004;0;0;0;0;8;0;1782;0;0;0;0;9;0;2132;0;0;0;0
10.10.20;19:15:00;1;498;8686;0;2;0;3858;0;0;0;0;3;0;2354;0;0;0;0;4;0;3232;0;0;0;0;5;0;0;0;0;0;0;0;0;6;0;5940;2;0;0;0;0;0;7;0;4004;0;0;0;0;8;0;1782;0;0;0;0;9;0;2132;0;0;0;0
10.10.20;19:10:00;1;474;8643;0;2;0;3858;0;0;0;0;3;0;2354;0;0;0;0;4;0;3232;0;0;0;0;5;0;0;0;0;0;0;0;0;6;0;5940;2;0;0;0;0;0;7;0;4004;0;0;0;0;8;0;1782;0;0;0;0;9;0;2132;0;0;0;0
10.10.20;19:05:00;1;518;8603;0;2;0;3858;0;0;0;0;3;0;2354;0;0;0;0;4;0;3232;0;0;0;0;5;0;0;0;0;0;0;0;0;6;0;5940;2;0;0;0;0;0;7;0;4004;0;0;0;0;8;0;1782;0;0;0;0;9;0;2132;0;0;0;0
10.10.20;19:00:00;1;484;8560;0;2;0;3858;0;0;0;0;3;0;2354;0;0;0;0;4;0;3232;0;0;0;0;5;0;0;0;0;0;0;0;0;6;0;5940;2;0;0;0;0;0;7;0;4004;0;0;0;0;8;0;1782;0;0;0;0;9;0;2132;0;0;0;0
10.10.20;18:55:00;1;429;8518;0;2;0;3858;0;0;0;0;3;0;2354;0;0;0;0;4;0;3232;0;0;0;0;5;0;0;0;0;0;0;0;0;6;0;5940;2;0;0;0;0;0;7;0;4004;0;0;0;0;8;0;1782;0;0;0;0;9;0;2132;0;0;0;0
10.10.20;18:50:00;1;480;8483;0;2;0;3858;0;0;0;0;3;0;2354;0;0;0;0;4;0;3232;0;0;0;0;5;0;0;0;0;0;0;0;0;6;0;5940;2;0;0;0;0;0;7;0;4004;0;0;0;0;8;0;1782;0;0;0;0;9;0;2132;0;0;0;0
10.10.20;18:45:00;1;439;8443;0;2;0;3858;0;0;0;0;3;0;2354;0;0;0;0;4;0;3232;0;0;0;0;5;0;0;0;0;0;0;0;0;6;0;5940;2;0;0;0;0;0;7;0;4004;0;0;0;0;8;0;1782;0;0;0;0;9;0;2132;0;0;0;0
10.10.20;18:40:00;1;428;8406;0;2;0;3858;0;0;0;0;3;0;2354;0;0;95;7;4;0;3232;0;0;0;0;5;0;0;0;0;0;0;0;0;6;0;5940;0;0;0;0;0;0;7;0;4004;0;0;0;0;8;0;1782;0;0;0;0;9;0;2132;0;0;0;0
10.10.20;18:35:00;1;430;8370;0;2;0;3858;0;0;217;15;3;0;2354;6;0;291;21;4;0;3232;0;0;40;12;5;0;0;0;0;0;0;0;0;6;0;5940;2;0;0;0;0;0;7;0;4004;0;0;0;0;8;0;1782;0;0;0;0;9;0;2132;0;0;0;0
10.10.20;18:30:00;1;448;8334;0;2;0;3858;6;0;310;19;3;0;2354;6;0;370;21;4;0;3232;1;0;102;19;5;0;0;0;0;0;0;0;0;6;0;5940;2;0;0;0;0;3;7;0;4004;0;0;0;0;8;0;1782;0;0;0;0;9;0;2132;0;0;109;7
10.10.20;18:25:00;1;483;8298;0;2;0;3858;6;0;330;19;3;0;2354;6;0;404;21;4;0;3232;1;0;125;19;5;0;0;0;0;0;0;0;0;6;0;5940;0;5;2;149;315;25;7;0;4004;0;0;170;15;8;0;1782;0;0;171;14;9;0;2132;6;0;279;18
10.10.20;18:20:00;1;529;8257;0;2;0;3858;6;0;355;19;3;0;2354;3;2;417;22;4;0;3232;1;0;160;19;5;0;0;0;0;0;0;0;0;6;0;5940;23;11;3;181;507;30;7;0;4004;6;0;306;23;8;0;1782;6;0;308;22;9;0;2132;6;0;327;18
10.10.20;18:15:00;1;468;8211;0;2;0;3858;6;0;374;19;3;1;2354;6;3;452;22;4;0;3232;1;0;194;20;5;0;0;0;0;0;0;0;0;6;0;5940;23;9;1;181;542;30;7;0;4004;6;0;363;23;8;0;1782;6;0;366;22;9;0;2132;6;0;395;19
10.10.20;18:10:00;1;534;8171;0;2;0;3858;6;0;399;19;3;2;2354;6;4;487;22;4;0;3232;1;0;220;20;5;0;0;0;0;0;0;0;0;6;15;5940;23;6;19;471;517;31;7;0;4004;6;1;426;23;8;0;1782;6;0;430;22;9;0;2132;6;0;467;19
10.10.20;18:05:00;1;507;8127;0;2;0;3858;6;0;409;20;3;1;2353;6;5;500;22;4;0;3232;3;0;206;20;5;0;0;0;0;0;0;0;0;6;62;5939;4;27;48;437;409;32;7;0;4004;6;4;448;23;8;0;1782;6;1;451;22;9;1;2132;6;1;492;19
10.10.20;18:00:00;1;489;8084;0;2;15;3858;6;23;398;20;3;1;2353;6;6;514;22;4;13;3232;3;14;200;20;5;0;0;0;0;0;0;0;0;6;83;5934;4;34;45;437;409;32;7;5;4004;6;13;448;24;8;2;1782;4;4;449;22;9;1;2132;3;8;495;19
10.10.20;17:55:00;1;448;8043;0;2;65;3857;4;92;358;20;3;5;2353;6;9;527;22;4;39;3231;3;41;200;20;5;0;0;0;0;0;0;0;0;6;113;5927;4;45;57;437;409;32;7;38;4004;6;57;376;24;8;0;1781;6;4;483;22;9;7;2132;6;16;506;19
10.10.20;17:50:00;1;446;8006;0;2;73;3851;4;103;363;20;3;11;2353;4;22;507;22;4;50;3227;3;52;200;20;5;0;0;0;0;0;0;0;0;6;117;5917;4;57;73;437;409;32;7;55;4000;4;79;354;24;8;1;1781;6;6;488;23;9;4;2131;6;8;539;19
10.10.20;17:45:00;1;436;7967;0;2;41;3845;4;63;376;20;3;3;2352;6;8;521;22;4;23;3223;3;24;200;20;5;0;0;0;0;0;0;0;0;6;87;5907;4;42;53;437;409;32;7;13;3996;3;20;458;24;8;1;1781;6;3;481;23;9;2;2131;6;6;525;19
10.10.20;17:40:00;1;478;7930;0;2;5;3842;6;10;407;20;3;1;2351;6;6;510;22;4;4;3221;3;4;200;20;5;0;0;0;0;0;0;0;0;6;71;5900;4;30;47;437;409;32;7;2;3995;6;11;445;24;8;0;1781;6;2;467;23;9;1;2131;6;5;516;19
10.10.20;17:35:00;1;446;7890;0;2;0;3842;6;0;413;20;3;1;2351;6;5;506;23;4;0;3221;3;0;200;20;5;0;0;0;0;0;0;0;0;6;63;5894;4;18;29;437;409;32;7;4;3994;6;8;436;24;8;0;1781;6;1;457;23;9;1;2130;6;3;504;20
10.10.20;17:30:00;1;469;7853;0;2;8;3842;6;11;405;21;3;1;2351;6;6;509;23;4;7;3221;3;7;200;21;5;0;0;0;0;0;0;0;0;6;77;5888;4;36;50;437;409;32;7;3;3994;6;8;442;24;8;0;1781;4;3;441;23;9;3;2130;3;7;489;20
10.10.20;17:25:00;1;571;7814;0;2;67;3841;4;93;359;21;3;4;2351;6;9;527;23;4;23;3220;3;24;198;21;5;0;0;0;0;0;0;0;0;6;122;5882;4;56;70;436;409;32;7;37;3994;6;65;406;25;8;3;1781;3;9;461;23;9;6;2130;6;9;533;20
10.10.20;17:20:00;1;543;7766;0;2;122;3835;4;150;370;21;3;69;2350;4;101;453;24;4;77;3218;3;80;201;21;5;0;0;0;0;0;0;0;0;6;188;5871;4;87;95;437;409;32;7;100;3991;4;134;395;25;8;19;1781;6;31;440;23;9;31;2129;6;42;501;20
10.10.20;17:15:00;1;537;7720;0;2;154;3826;4;183;370;22;3;89;2345;4;126;477;24;4;111;3212;5;116;223;21;5;0;0;0;0;0;0;0;0;6;223;5855;4;112;121;437;409;32;7;138;3983;4;178;422;25;8;48;1779;4;76;364;23;9;76;2127;4;101;452;21
10.10.20;17:10:00;1;429;7676;0;2;141;3813;4;170;370;22;3;78;2337;4;115;482;24;4;96;3203;5;100;211;21;5;0;0;0;0;0;0;0;0;6;203;5836;4;97;105;437;409;32;7;124;3971;4;161;456;25;8;39;1775;4;63;383;23;9;65;2120;4;87;467;20
10.10.20;17:05:00;1;435;7640;0;2;99;3801;4;127;370;22;3;50;2331;4;80;382;23;4;64;3194;3;66;200;21;5;0;0;0;0;0;0;0;0;6;150;5820;4;71;82;437;409;32;7;84;3960;4;114;448;25;8;4;1772;6;7;497;24;9;6;2115;6;11;549;20
10.10.20;17:00:00;1;476;7603;0;2;71;3793;4;97;364;22;3;6;2327;6;11;529;23;4;42;3189;3;44;200;21;5;0;0;0;0;0;0;0;0;6;121;5807;4;52;69;437;409;32;7;61;3953;4;88;365;25;8;1;1772;6;6;487;24;9;5;2114;6;8;540;21
10.10.20;16:55:00;1;502;7563;0;2;38;3787;4;56;378;22;3;5;2326;6;10;523;24;4;17;3186;3;18;200;21;5;0;0;0;0;0;0;0;0;6;102;5797;4;50;63;437;409;32;7;13;3948;3;22;454;25;8;2;1772;6;4;479;24;9;3;2114;6;6;529;21
10.10.20;16:50:00;1;427;7521;0;2;51;3784;6;73;368;22;3;3;2326;6;8;523;24;4;20;3184;3;21;198;21;5;0;0;0;0;0;0;0;0;6;110;5789;4;39;50;437;409;32;7;13;3947;6;23;454;25;8;1;1771;6;1;476;24;9;0;2114;6;0;548;21
10.10.20;16:45:00;1;427;7485;0;2;122;3780;4;151;368;22;3;60;2326;6;91;490;25;4;77;3183;3;80;206;21;5;0;0;0;0;0;0;0;0;6;187;5779;4;91;97;437;409;32;7;73;3946;4;103;422;25;8;0;1771;4;5;488;24;9;4;2114;4;8;542;21
10.10.20;16:40:00;1;450;7450;0;2;225;3770;4;258;374;23;3;132;2321;4;172;492;25;4;177;3176;5;184;225;21;5;0;0;0;0;0;0;0;0;6;308;5763;4;145;149;437;409;32;7;202;3940;4;235;449;25;8;73;1771;4;110;453;25;9;104;2113;4;133;487;22
10.10.20;16:35:00;1;469;7413;0;2;223;3751;4;256;379;23;3;133;2310;4;174;496;25;4;173;3161;5;180;225;21;5;0;0;0;0;0;0;0;0;6;320;5736;4;168;177;465;455;32;7;229;3923;4;274;471;25;8;93;1765;4;132;458;25;9;135;2105;4;164;501;22
10.10.20;16:30:00;1;489;7373;0;2;318;3733;4;356;390;23;3;195;2299;4;236;506;25;4;267;3147;5;278;230;21;5;0;0;0;0;0;0;0;0;6;512;5708;4;257;276;579;552;32;7;285;3904;4;318;467;25;8;123;1758;4;151;446;25;9;153;2094;4;184;505;22
10.10.20;16:25:00;1;532;7333;0;2;385;3706;4;425;394;23;3;237;2282;4;280;498;25;4;332;3125;5;346;234;21;5;0;0;0;0;0;0;0;0;6;553;5665;4;279;294;520;507;32;7;386;3881;4;427;471;25;8;177;1747;4;210;463;25;9;211;2081;4;245;515;22
10.10.20;16:20:00;1;519;7288;0;2;260;3674;4;295;383;23;3;157;2263;4;196;504;25;4;208;3097;5;216;227;22;5;0;0;0;0;0;0;0;0;6;322;5621;4;174;178;437;409;32;7;282;3849;4;323;474;25;8;113;1733;4;156;471;25;9;159;2064;4;191;519;22
10.10.20;16:15:00;1;444;7245;0;2;214;3652;4;247;374;23;3;131;2250;4;167;473;25;4;171;3080;5;178;223;22;5;0;0;0;0;0;0;0;0;6;306;5594;4;136;168;451;497;32;7;221;3825;4;256;435;25;8;82;1723;4;119;465;25;9;120;2050;4;148;507;22
10.10.20;16:10:00;1;450;7208;0;2;268;3635;4;301;380;23;3;160;2239;4;199;491;25;4;217;3066;5;226;226;22;5;0;0;0;0;0;0;0;0;6;436;5568;4;204;231;568;545;32;7;288;3807;4;331;460;25;8;118;1716;4;158;442;25;9;157;2040;4;186;502;22
10.10.20;16:05:00;1;524;7170;0;2;389;3612;4;431;395;24;3;240;2225;4;284;500;26;4;329;3048;5;342;235;22;5;0;0;0;0;0;0;0;0;6;619;5531;4;307;323;569;554;32;7;410;3783;4;447;467;25;8;176;1706;4;214;443;25;9;217;2027;4;250;510;23
10.10.20;16:00:00;1;584;7126;0;2;442;3580;4;486;398;24;3;275;2205;4;320;507;26;4;377;3020;5;392;236;22;5;0;0;0;0;0;0;0;0;6;693;5478;4;344;366;575;556;32;7;476;3748;4;514;466;25;8;215;1692;4;254;471;25;9;257;2009;4;295;511;23
10.10.20;15:55:00;1;520;7078;0;2;424;3543;4;464;396;24;3;266;2182;4;309;508;26;4;357;2989;5;372;237;22;5;0;0;0;0;0;0;0;0;6;636;5420;4;309;336;566;559;32;7;419;3708;4;459;467;25;8;190;1674;4;223;476;25;9;228;1987;4;263;499;23
10.10.20;15:50:00;1;481;7034;0;2;412;3507;4;451;396;24;3;254;2160;4;298;508;26;4;345;2959;5;360;233;22;5;0;0;0;0;0;0;0;0;6;642;5367;4;306;333;578;560;32;7;400;3673;4;434;462;25;8;175;1658;4;210;456;25;9;212;1968;4;246;501;23
10.10.20;15:45:00;1;554;6994;0;2;513;3473;4;559;405;24;3;321;2139;4;367;505;26;4;443;2930;5;461;238;22;5;0;0;0;0;0;0;0;0;6;809;5313;4;402;413;579;562;32;7;526;3640;4;567;464;25;8;241;1643;4;279;465;25;9;280;1951;4;322;518;23
10.10.20;15:40:00;1;562;6947;0;2;572;3431;4;617;398;24;3;356;2112;4;406;505;26;4;492;2893;5;512;241;22;5;0;0;0;0;0;0;0;0;6;898;5245;4;444;465;585;562;32;7;598;3596;4;640;471;25;8;277;1623;4;316;470;25;9;319;1927;4;359;523;23
10.10.20;15:35:00;1;523;6900;0;2;624;3383;4;670;397;24;3;393;2082;4;442;510;26;4;535;2852;5;558;239;23;5;0;0;0;0;0;0;0;0;6;957;5169;4;462;470;588;567;32;7;647;3546;4;693;471;25;8;286;1600;4;336;490;25;9;347;1901;4;388;519;23
10.10.20;15:30:00;1;594;6857;0;2;547;3331;4;591;401;24;3;339;2050;4;389;501;26;4;471;2808;5;491;237;23;5;0;0;0;0;0;0;0;0;6;844;5090;4;422;431;584;567;32;7;593;3492;4;633;473;25;8;271;1576;4;310;479;25;9;319;1872;4;358;514;23
10.10.20;15:25:00;1;467;6807;0;2;709;3285;4;762;403;25;3;448;2021;4;498;508;26;4;612;2768;5;637;243;23;5;0;0;0;0;0;0;0;0;6;1096;5019;4;560;577;595;564;32;7;748;3443;4;791;471;25;8;347;1553;4;383;485;25;9;401;1845;4;444;525;23
10.10.20;15:20:00;1;459;6768;0;2;757;3226;4;809;405;25;3;481;1984;4;533;512;26;4;663;2717;5;691;242;23;5;0;0;0;0;0;0;0;0;6;1153;4926;4;585;602;592;566;32;7;827;3380;4;885;475;25;8;398;1524;4;442;483;25;9;455;1811;4;502;527;23
10.10.20;15:15:00;1;481;6730;0;2;720;3163;4;771;406;25;3;455;1944;4;505;509;26;4;632;2662;5;658;240;23;5;0;0;0;0;0;0;0;0;6;1107;4830;4;545;548;592;563;32;7;781;3311;4;839;477;25;8;367;1491;4;412;459;25;9;423;1773;4;468;523;23
10.10.20;15:10:00;1;592;6690;0;2;778;3103;4;829;402;24;3;491;1906;4;542;512;26;4;677;2609;5;705;240;23;5;0;0;0;0;0;0;0;0;6;1169;4737;4;587;593;590;567;32;7;839;3246;4;892;482;25;8;401;1461;4;443;487;25;9;456;1738;4;502;522;23
10.10.20;15:05:00;1;299;6647;0;2;639;3038;4;687;401;24;3;402;1865;4;454;498;26;4;547;2553;5;569;242;23;5;0;0;0;0;0;0;0;0;6;930;4640;4;486;484;589;560;32;7;723;3176;4;771;475;25;8;339;1427;4;379;485;25;9;397;1700;4;437;515;23
10.10.20;15:00:00;1;274;6622;0;2;479;2985;4;523;400;24;3;304;1832;4;348;501;26;4;400;2508;5;417;235;23;5;0;0;0;0;0;0;0;0;6;707;4566;4;357;378;570;559;32;7;489;3117;4;536;469;25;8;228;1399;4;266;477;25;9;267;1667;4;303;518;23
10.10.20;14:55:00;1;269;6600;0;2;432;2945;4;475;392;24;3;271;1806;4;313;505;26;4;356;2474;5;370;233;23;5;0;0;0;0;0;0;0;0;6;630;4507;4;321;346;567;555;32;7;439;3075;4;480;463;25;8;189;1380;4;233;482;25;9;236;1645;4;272;510;23
10.10.20;14:50:00;1;518;6576;0;2;392;2909;4;434;399;24;3;245;1784;4;289;501;26;4;331;2445;5;344;234;23;5;0;0;0;0;0;0;0;0;6;594;4455;4;298;326;575;560;32;7;400;3039;4;444;465;25;8;171;1364;4;211;480;25;9;218;1625;4;251;507;23
10.10.20;14:45:00;1;528;6533;0;2;332;2876;4;373;401;24;3;209;1763;4;249;506;26;4;279;2417;5;291;229;23;5;0;0;0;0;0;0;0;0;6;528;4405;4;282;297;581;550;32;7;331;3005;4;371;475;25;8;140;1350;4;178;475;25;9;182;1607;4;216;513;23
10.10.20;14:40:00;1;654;6489;0;2;414;2848;4;454;396;24;3;257;1746;4;299;507;26;4;348;2393;5;362;232;23;5;0;0;0;0;0;0;0;0;6;639;4361;4;320;345;570;558;32;7;408;2978;4;444;468;25;8;175;1338;4;216;439;25;9;219;1592;4;252;505;23
10.10.20;14:35:00;1;683;6434;0;2;518;2814;4;565;403;25;3;323;1724;4;371;502;26;4;437;2365;5;455;237;23;5;0;0;0;0;0;0;0;0;6;785;4307;4;409;420;582;558;32;7;495;2944;4;542;463;25;8;224;1324;4;266;462;25;9;267;1574;4;303;515;23
10.10.20;14:30:00;1;690;6376;0;2;608;2770;4;655;397;25;3;380;1697;4;429;498;26;4;527;2328;5;549;239;23;5;0;0;0;0;0;0;0;0;6;918;4240;4;467;474;591;569;32;7;624;2902;4;670;477;25;8;296;1305;4;332;479;25;9;339;1551;4;383;518;23
10.10.20;14:25:00;1;709;6319;0;2;682;2720;4;734;404;25;3;431;1665;4;483;510;27;4;591;2284;5;615;239;23;5;0;0;0;0;0;0;0;0;6;1044;4163;4;522;530;589;562;32;7;715;2850;4;764;467;25;8;336;1280;4;373;467;25;9;384;1523;4;427;517;23
10.10.20;14:20:00;1;546;6260;0;2;802;2663;4;855;408;25;3;507;1629;4;560;514;27;4;694;2234;5;723;240;23;5;0;0;0;0;0;0;0;0;6;1207;4074;4;606;615;592;571;32;7;839;2790;4;894;474;25;8;400;1252;4;442;475;25;9;454;1490;4;503;523;24
10.10.20;14:15:00;1;293;6215;0;2;925;2596;4;981;412;25;3;585;1587;4;646;524;26;4;806;2177;5;839;243;23;5;0;0;0;0;0;0;0;0;6;1364;3973;4;680;690;593;574;32;7;993;2720;4;1064;482;25;8;491;1219;4;527;473;24;9;548;1453;4;598;527;23
10.10.20;14:10:00;1;221;6192;0;2;804;2519;4;857;405;25;3;508;1539;4;559;504;26;4;694;2110;5;723;241;23;5;0;0;0;0;0;0;0;0;6;1215;3861;4;602;619;590;573;32;7;862;2638;4;919;473;25;8;417;1178;4;457;481;24;9;471;1407;4;520;523;23
10.10.20;14:05:00;1;276;6174;0;2;731;2452;4;784;405;25;3;464;1496;4;517;512;26;4;635;2052;5;661;238;23;5;0;0;0;0;0;0;0;0;6;1104;3760;4;550;565;592;562;32;7;773;2566;4;821;475;25;8;366;1143;4;405;484;24;9;422;1368;4;466;519;23
10.10.20;14:00:00;1;258;6151;0;2;758;2391;4;809;403;25;3;479;1457;4;530;509;26;4;650;1999;5;677;240;23;5;0;0;0;0;0;0;0;0;6;1156;3668;4;581;586;591;571;32;7;795;2502;4;843;481;25;8;374;1113;4;416;484;24;9;427;1333;4;474;528;23
10.10.20;13:55:00;1;300;6129;0;2;714;2328;4;766;405;25;3;449;1418;4;501;509;26;4;613;1945;5;639;240;23;5;0;0;0;0;0;0;0;0;6;1085;3571;4;538;559;595;573;32;7;733;2435;4;777;475;25;8;346;1081;4;392;474;24;9;395;1297;4;439;517;23